TimeEDT,TemperatureF,Dew PointF,Humidity,Sea Level PressureIn,VisibilityMPH,Wind Direction,Wind SpeedMPH,Gust SpeedMPH,PrecipitationIn,Events,Conditions,WindDirDegrees,DateUTC
12:15 AM,35.6,35.6,100,29.83,7.0,WNW,6.9,-,N/A,Rain,Rain,290,2012-11-01 04:15:00
12:35 AM,33.8,33.8,100,29.83,5.0,WNW,4.6,-,N/A,Rain,Rain,290,2012-11-01 04:35:00
12:55 AM,35.6,35.6,100,29.83,5.0,WNW,8.1,-,N/A,Rain,Light Rain,290,2012-11-01 04:55:00
1:15 AM,35.6,35.6,100,29.83,5.0,WNW,8.1,-,N/A,,Overcast,290,2012-11-01 05:15:00
1:35 AM,35.6,35.6,100,29.82,10.0,West,5.8,-,N/A,,Overcast,280,2012-11-01 05:35:00
1:55 AM,35.6,35.6,100,29.82,10.0,WNW,9.2,-,N/A,,Overcast,300,2012-11-01 05:55:00
2:15 AM,35.6,35.6,100,29.82,7.0,West,5.8,-,N/A,,Overcast,280,2012-11-01 06:15:00
2:35 AM,35.6,35.6,100,29.82,10.0,West,5.8,-,N/A,,Overcast,280,2012-11-01 06:35:00
2:55 AM,35.6,35.6,100,29.82,10.0,WSW,3.5,-,N/A,,Overcast,250,2012-11-01 06:55:00
3:15 AM,35.6,35.6,100,29.82,10.0,West,5.8,-,N/A,,Overcast,260,2012-11-01 07:15:00
3:35 AM,35.6,35.6,100,29.82,10.0,West,5.8,-,N/A,,Overcast,280,2012-11-01 07:35:00
3:55 AM,35.6,35.6,100,29.82,7.0,West,8.1,-,N/A,,Light Drizzle,280,2012-11-01 07:55:00
4:15 AM,35.6,35.6,100,29.82,7.0,West,10.4,17.3,N/A,,Overcast,260,2012-11-01 08:15:00
4:35 AM,35.6,35.6,100,29.81,10.0,West,9.2,-,N/A,,Overcast,280,2012-11-01 08:35:00
5:15 AM,35.6,35.6,100,29.82,10.0,WNW,8.1,-,N/A,,Overcast,290,2012-11-01 09:15:00
5:35 AM,35.6,35.6,100,29.82,10.0,West,6.9,-,N/A,,Overcast,280,2012-11-01 09:35:00
5:55 AM,35.6,35.6,100,29.83,7.0,West,5.8,-,N/A,Snow,Light Snow,280,2012-11-01 09:55:00
6:15 AM,35.6,35.6,100,29.83,10.0,West,6.9,-,N/A,,Overcast,280,2012-11-01 10:15:00
6:35 AM,35.6,35.6,100,29.83,10.0,West,5.8,-,N/A,,Overcast,280,2012-11-01 10:35:00
6:55 AM,35.6,35.6,100,29.83,7.0,West,6.9,-,N/A,Rain,Light Rain,270,2012-11-01 10:55:00
7:15 AM,35.6,35.6,100,29.84,10.0,West,8.1,-,N/A,,Light Drizzle,270,2012-11-01 11:15:00
7:35 AM,35.6,35.6,100,29.84,10.0,West,5.8,-,N/A,,Overcast,270,2012-11-01 11:35:00
7:55 AM,35.6,35.6,100,29.84,10.0,West,5.8,-,N/A,,Overcast,260,2012-11-01 11:55:00
8:15 AM,35.6,35.6,100,29.85,10.0,West,8.1,-,N/A,,Overcast,260,2012-11-01 12:15:00
8:35 AM,35.6,35.6,100,29.85,10.0,West,9.2,-,N/A,,Overcast,260,2012-11-01 12:35:00
8:55 AM,35.6,35.6,100,29.86,10.0,WSW,10.4,-,N/A,,Overcast,250,2012-11-01 12:55:00
9:35 AM,35.6,35.6,100,29.87,10.0,West,8.1,-,N/A,,Overcast,270,2012-11-01 13:35:00
9:55 AM,35.6,35.6,100,29.88,10.0,West,9.2,-,N/A,,Overcast,270,2012-11-01 13:55:00
10:15 AM,37.4,33.8,87,29.88,10.0,West,8.1,-,N/A,,Overcast,270,2012-11-01 14:15:00
10:35 AM,37.4,33.8,87,29.88,10.0,WSW,10.4,-,N/A,,Overcast,250,2012-11-01 14:35:00
10:55 AM,37.4,33.8,87,29.88,10.0,West,10.4,-,N/A,,Overcast,260,2012-11-01 14:55:00
11:15 AM,41.0,33.8,76,29.88,10.0,WSW,12.7,17.3,N/A,,Overcast,250,2012-11-01 15:15:00
11:35 AM,41.0,33.8,76,29.88,10.0,West,11.5,-,N/A,,Overcast,260,2012-11-01 15:35:00
11:55 AM,41.0,33.8,76,29.87,10.0,WSW,12.7,-,N/A,,Overcast,240,2012-11-01 15:55:00
12:15 PM,41.0,32.0,70,29.88,10.0,WSW,16.1,19.6,N/A,,Mostly Cloudy,250,2012-11-01 16:15:00
12:35 PM,42.8,33.8,70,29.88,10.0,West,8.1,17.3,N/A,,Scattered Clouds,260,2012-11-01 16:35:00
12:55 PM,42.8,32.0,66,29.87,10.0,West,13.8,18.4,N/A,,Mostly Cloudy,270,2012-11-01 16:55:00
1:15 PM,44.6,32.0,61,29.86,10.0,WSW,10.4,-,N/A,,Scattered Clouds,250,2012-11-01 17:15:00
1:35 PM,44.6,32.0,61,29.85,10.0,West,11.5,18.4,N/A,,Mostly Cloudy,260,2012-11-01 17:35:00
1:55 PM,44.6,32.0,61,29.85,10.0,West,15.0,19.6,N/A,,Mostly Cloudy,260,2012-11-01 17:55:00
2:15 PM,44.6,32.0,61,29.84,10.0,WSW,12.7,21.9,N/A,,Scattered Clouds,240,2012-11-01 18:15:00
2:35 PM,46.4,32.0,57,29.84,10.0,West,12.7,-,N/A,,Clear,260,2012-11-01 18:35:00
2:55 PM,46.4,32.0,57,29.83,10.0,West,6.9,17.3,N/A,,Clear,270,2012-11-01 18:55:00
3:15 PM,46.4,30.2,53,29.83,10.0,West,12.7,18.4,N/A,,Clear,280,2012-11-01 19:15:00
3:35 PM,46.4,28.4,50,29.84,10.0,West,13.8,18.4,N/A,,Clear,270,2012-11-01 19:35:00
4:35 PM,48.2,26.6,43,29.84,10.0,West,10.4,-,N/A,,Clear,260,2012-11-01 20:35:00
4:55 PM,46.4,26.6,46,29.84,10.0,West,12.7,18.4,N/A,,Scattered Clouds,260,2012-11-01 20:55:00
5:15 PM,46.4,26.6,46,29.85,10.0,West,16.1,-,N/A,,Scattered Clouds,270,2012-11-01 21:15:00
5:35 PM,46.4,28.4,50,29.85,10.0,West,6.9,-,N/A,,Scattered Clouds,280,2012-11-01 21:35:00
6:15 PM,44.6,23.0,43,29.85,10.0,West,8.1,-,N/A,,Scattered Clouds,270,2012-11-01 22:15:00
6:35 PM,42.8,26.6,53,29.86,10.0,West,5.8,-,N/A,,Scattered Clouds,260,2012-11-01 22:35:00
6:55 PM,42.8,23.0,46,29.87,10.0,West,9.2,-,N/A,,Mostly Cloudy,270,2012-11-01 22:55:00
7:15 PM,42.8,24.8,49,29.87,10.0,WSW,5.8,-,N/A,,Overcast,250,2012-11-01 23:15:00
7:35 PM,41.0,26.6,57,29.88,10.0,West,5.8,-,N/A,,Scattered Clouds,260,2012-11-01 23:35:00
7:55 PM,41.0,24.8,53,29.88,10.0,West,5.8,-,N/A,,Scattered Clouds,260,2012-11-01 23:55:00
8:15 PM,41.0,26.6,57,29.88,10.0,West,5.8,-,N/A,,Mostly Cloudy,260,2012-11-02 00:15:00
8:35 PM,41.0,26.6,57,29.89,10.0,West,8.1,-,N/A,,Overcast,260,2012-11-02 00:35:00
8:55 PM,41.0,26.6,57,29.88,10.0,West,8.1,-,N/A,,Mostly Cloudy,260,2012-11-02 00:55:00
9:15 PM,41.0,24.8,53,29.89,10.0,West,5.8,-,N/A,,Overcast,270,2012-11-02 01:15:00
9:35 PM,41.0,24.8,53,29.90,10.0,West,6.9,-,N/A,,Overcast,260,2012-11-02 01:35:00
9:55 PM,41.0,23.0,49,29.91,10.0,West,8.1,-,N/A,,Overcast,260,2012-11-02 01:55:00
10:15 PM,42.8,23.0,46,29.91,10.0,West,8.1,-,N/A,,Overcast,270,2012-11-02 02:15:00
10:35 PM,42.8,23.0,46,29.91,10.0,West,6.9,-,N/A,,Overcast,260,2012-11-02 02:35:00
10:55 PM,42.8,23.0,46,29.91,10.0,West,8.1,-,N/A,,Overcast,270,2012-11-02 02:55:00
11:15 PM,42.8,23.0,46,29.91,10.0,West,6.9,-,N/A,,Overcast,260,2012-11-02 03:15:00
11:35 PM,42.8,23.0,46,29.90,10.0,West,6.9,-,N/A,,Overcast,260,2012-11-02 03:35:00
11:55 PM,42.8,24.8,49,29.90,10.0,West,8.1,-,N/A,,Overcast,260,2012-11-02 03:55:00